Location: Central Falls
(41.8900°N, 71.3929°W)
Time: 04:11:45
(UTC+00:00)

Courier 1B - Pass Details

Date: 11 December 2023
Orbit: 962 x 1209 km, 28.3° (Epoch: 21 February)

Event Time Altitude Azimuth Distance (km) Brightness Sun altitude
Rises 11:00:12 0° 222° (SW) 4,004 10.5 -11.3°
Reaches altitude 10° 11:03:59 10° 205° (SSW) 3,002 10.0 -10.7°
Maximum altitude 11:08:49 19° 164° (SSE) 2,349 10.0 -9.8°
Drops below altitude 10° 11:13:30 10° 122° (ESE) 2,881 11.6 -9.0°
Sets 11:17:01 0° 105° (ESE) 3,790 12.8 -8.4°
